OBJECT AU, 60510

Orbit data source: Space-Track

You're viewing an uncataloged RSO

Recently launched and/or uncataloged RSOs may have evolving metadata. Metadata may include the following, but is not limited to: Owner, Manufacturer, Bus, Motor, and Mission.

OBJECT AU, 60510 is a satellite in SSO that was launched on Fri, 16 Aug 2024 UTC via an FALCON 9 launch vehicle from the Air Force Western Test Range (AFWTR). Unknown objects in Earth's orbit typically refer to objects detected orbiting the Earth but have not yet been identified or cataloged. These objects could be anything from previously untracked satellites, spent rocket stages, debris from satellite collisions, or even natural meteoroids temporarily captured by Earth's gravity.

Loading next visibility...
Identifier
60510, 2024-149AU
Orbit
SSO
Country
Flag of TBDTBD
Related business
None
Manufacturer
Unknown
Mission
Operational Civil Communications
Bus & Motor
Unknown
Mass
Unknown
Launch date (UTC)
2024-08-16 (2 years ago)
Launch vehicle
FALCON 9
Launch site
Air Force Western Test Range (AFWTR)
Object type
Unknown
Shape & HBR
Box, 0.2 m
Radar Cross Section
0.045 m², Medium (>0.1 m² and < 1m²)

Expand to show TLE details & history
Last TLE update: 16 hours ago

TLE from 16 hours ago
0 OBJECT AU
1 60510U 24149AU  26219.74925439  .00008388  00000-0  20138-3 0  9999
2 60510  97.3708 303.9260 0005106 104.2365 255.9450 15.41604229110257
Epoch: 2026-08-07T17:58Z
TLE epoch observation values (Epoch: 2026-08-07T17:58:55.579Z)
Latitude
0.00005°
Longitude
77.92393°
Altitude
445.342 km
Speed
7.644 km/s
True Right ascension
20h 15m 42s
True Declination
0° 00' 00"
Sunlit
Object was in full shadow at epoch
Visualization orbit readout
Latitude
Unknown
Longitude
Unknown
Altitude
Unknown
Speed
Unknown
Apparent Right ascension
Unknown
Apparent Declination
Unknown
Sunlit
N/A
Visualization observer readout
Local Sidereal Time
23:48:47
Azimuth
Unknown
Elevation
Unknown
Doppler factor
Unknown
Orbital elements
Apogee altitude
441.79 km
Perigee altitude
434.829 km
Semi-major axis
6,816.447 km
Eccentricity
0.00051
Inclination
97.3708°
RAAN
303.926°
Arg. of periapsis
104.2365°
True anomaly
255.88825°
Mean anomaly
255.945°
Eccentric anomaly
255.91662°
Mean motion
3.85661 °/min
Orbital period
93.35 mins
BSTAR
0.00020138
Loading maneuver chart data...
Computing Atmospheric mass density...
Loading historical data...
Loading historical data...
Loading historical data...
Loading historical data...
Loading historical data...
Loading historical data...
Loading historical data...

Documentation

Showing up to 5 results
|